Skip Page Navigation
NASA JPL Caltech
NASA Logo - Jet Propulsion Laboratory + View the NASA Portal
+ Near-Earth Object (NEO) Program
Search JPL
JPL Home Earth Solar System Stars & Galaxies Technology
JPL Solar System Dynamics
BODIES ORBITS EPHEMERIDES TOOLS PHYSICAL DATA DISCOVERY FAQ SITE MAP
JPL Small-Body Database Browser
Search: [ help ]  
13537 (1991 SG)
Classification: Main-belt Asteroid          SPK-ID: 2013537
Ephemeris | Orbit Diagram | Orbital Elements | Physical Parameters | Discovery Circumstances | Close-Approach Data ]

[ show orbit diagram ]
Orbital Elements at Epoch 2457000.5 (2014-Dec-09.0) TDB
Reference: JPL 11 (heliocentric ecliptic J2000)
 Element Value Uncertainty (1-sigma)   Units 
e .07990279888057326 6.7096e-08  
a 3.172260150103575 3.3508e-08 AU
q 2.918787685332991 2.12e-07 AU
i 9.86975134700222 7.6432e-06 deg
node 157.2955637871703 3.6354e-05 deg
peri 187.8386389175738 5.4715e-05 deg
M 43.26591570925098 4.0104e-05 deg
tp 2456752.475250645714
(2014-Apr-04.97525065)
0.00022995 JED
period 2063.724026265126
5.65
3.2698e-05
8.952e-08
d
yr
n .1744419289683411 2.7639e-09 deg/d
Q 3.425732614874157 3.6185e-08 AU
  Orbit Determination Parameters
   # obs. used (total)      910  
   data-arc span      13777 days (37.72 yr)  
   first obs. used      1977-02-11  
   last obs. used      2014-11-01  
   planetary ephem.      DE431  
   SB-pert. ephem.      SB431-BIG16  
   condition code      0  
   fit RMS      .47786  
   data source      ORB  
   producer      Otto Matic  
   solution date      2014-Nov-10 13:20:01  

Additional Information
 Earth MOID = 1.91175 AU 
 T_jup = 3.174 
[ show covariance matrix ]

Ephemeris | Orbit Diagram | Orbital Elements | Physical Parameters | Discovery Circumstances | Close-Approach Data ]

Physical Parameter Table
Parameter Symbol Value Units Sigma Reference Notes
absolute magnitude H 12.8 mag n/a MPO313528  

13537 (1991 SG)          Discovered 1991-Sep-29 by McNaught, R. H. at Siding Spring (413)
Reference: 20000222/Numbers.arcLast Updated: 2004-04-19

[ show close-approach data ]
Alternate Designations
 1991 SG = 1977 CM1 = 1989 EO7 
Ephemeris | Orbit Diagram | Orbital Elements | Physical Parameters | Discovery Circumstances | Close-Approach Data ]
ABOUT SSD CREDITS/AWARDS PRIVACY/COPYRIGHT GLOSSARY LINKS
FirstGov 2014-Nov-23 14:37 UT
(server date/time)  
NASA Home Page
Site Manager:   Donald K. Yeomans
Webmaster  Alan B. Chamberlin